Location: Houhaj�rvi
(61.2833°N, 23.0000°E)
Time: 23:10:39
(UTC+00:00)

SJ-6B - Pass Details

Date: 27 February 2020
Orbit: 511 x 581 km, 97.6° (Epoch: 05 April)

Event Time Altitude Azimuth Distance (km) Brightness Sun altitude
Exits shadow 17:53:15 - 166° (SSE) 1,913 5.3 -16.0°
Reaches altitude 10° 17:53:38 10° 167° (SSE) 1,755 5.1 -16.0°
Maximum altitude 17:57:25 78° 253° (WSW) 546 2.8 -16.5°
Drops below altitude 10° 18:01:19 10° 341° (NNW) 1,802 5.9 -16.9°
Sets 18:03:28 0° 343° (NNW) 2,710 6.8 -17.2°
